GW2166 Weather Reports


Display with metric or nautical units.
time (UTC)temp
F
wind
direction
speed
MPH
gust
MPH
rain 1hr
in
rain 24hr
in
rain mn
in
humidity
%
barometer
mb
20260902202325 100 116 7.0 16.0 0.00 0.00 0.00 41 1012.5
20260902201825 100 216 8.0 16.0 0.00 0.00 0.00 41 1012.5
20260902201325 100 231 4.0 18.0 0.00 0.00 0.00 45 1012.6
20260902200824 99 159 9.0 18.0 0.00 0.00 0.00 42 1012.8
20260902200325 99 190 6.0 16.0 0.00 0.00 0.00 41 1012.7
20260902195324 99 185 6.0 16.0 0.00 0.00 0.00 42 1012.8
20260902194824 99 178 9.0 16.0 0.00 0.00 0.00 41 1013.0
20260902194324 99 209 6.0 17.0 0.00 0.00 0.00 42 1013.0
20260902193824 99 220 8.0 17.0 0.00 0.00 0.00 43 1013.1
20260902193323 99 145 7.0 17.0 0.00 0.00 0.00 41 1013.1
20260902192823 99 193 9.0 15.0 0.00 0.00 0.00 42 1013.2
20260902192324 99 195 8.0 15.0 0.00 0.00 0.00 42 1013.3
20260902191824 100 213 7.0 14.0 0.00 0.00 0.00 43 1013.3
20260902191323 98 179 6.0 14.0 0.00 0.00 0.00 44 1013.3
20260902190824 99 180 7.0 14.0 0.00 0.00 0.00 43 1013.5
20260902190323 100 228 6.0 14.0 0.00 0.00 0.00 43 1013.5
20260902185823 98 220 7.0 15.0 0.00 0.00 0.00 43 1013.5
20260902184323 98 200 8.0 18.0 0.00 0.00 0.00 44 1013.8
20260902183823 99 165 9.0 17.0 0.00 0.00 0.00 43 1013.9
20260902183322 98 117 7.0 15.0 0.00 0.00 0.00 45 1013.7
20260902182822 98 212 6.0 15.0 0.00 0.00 0.00 46 1013.9
20260902182323 98 172 9.0 16.0 0.00 0.00 0.00 45 1014.0
20260902181822 98 197 7.0 16.0 0.00 0.00 0.00 46 1014.1
20260902181322 98 182 7.0 15.0 0.00 0.00 0.00 47 1014.1
20260902180822 98 266 7.0 18.0 0.00 0.00 0.00 49 1014.1
20260902180322 97 178 9.0 19.0 0.00 0.00 0.00 47 1014.3
20260902175821 97 195 7.0 19.0 0.00 0.00 0.00 47 1014.2
20260902175321 97 131 6.0 16.0 0.00 0.00 0.00 51 1014.3
20260902174821 96 171 8.0 14.0 0.00 0.00 0.00 48 1014.5
20260902174321 97 206 7.0 13.0 0.00 0.00 0.00 48 1014.5
20260902173321 96 305 5.0 15.0 0.00 0.00 0.00 49 1014.6
20260902172321 96 220 6.0 21.0 0.00 0.00 0.00 50 1014.8
20260902171820 96 188 9.0 17.0 0.00 0.00 0.00 49 1014.7
20260902171320 96 190 6.0 14.0 0.00 0.00 0.00 52 1014.7
20260902170820 95 200 7.0 15.0 0.00 0.00 0.00 51 1014.9
20260902170320 95 127 8.0 17.0 0.00 0.00 0.00 53 1015.0
20260902165320 94 193 8.0 16.0 0.00 0.00 0.00 52 1014.9
20260902164820 94 200 7.0 16.0 0.00 0.00 0.00 54 1015.0
20260902163819 94 157 9.0 16.0 0.00 0.00 0.00 53 1015.1
20260902163319 94 209 7.0 16.0 0.00 0.00 0.00 55 1015.1
20260902162819 93 204 6.0 16.0 0.00 0.00 0.00 55 1015.2
20260902162320 93 173 8.0 18.0 0.00 0.00 0.00 56 1015.3
20260902161819 92 216 9.0 18.0 0.00 0.00 0.00 56 1015.4
20260902161319 92 210 7.0 15.0 0.00 0.00 0.00 55 1015.3
20260902160819 92 228 7.0 16.0 0.00 0.00 0.00 56 1015.4
20260902160319 92 196 10.0 16.0 0.00 0.00 0.00 56 1015.5
20260902155819 92 182 9.0 15.0 0.00 0.00 0.00 56 1015.4
20260902155319 91 168 6.0 16.0 0.00 0.00 0.00 60 1015.4
20260902154819 90 199 10.0 16.0 0.00 0.00 0.00 58 1015.3
20260902154319 90 216 6.0 16.0 0.00 0.00 0.00 60 1015.3
20260902153818 90 195 6.0 16.0 0.00 0.00 0.00 59 1015.4
20260902153318 89 203 6.0 14.0 0.00 0.00 0.00 61 1015.4
20260902152818 89 165 7.0 13.0 0.00 0.00 0.00 62 1015.4
20260902152318 89 207 6.0 12.0 0.00 0.00 0.00 64 1015.4
20260902151318 88 252 6.0 14.0 0.00 0.00 0.00 64 1015.4
20260902150818 87 209 7.0 14.0 0.00 0.00 0.00 64 1015.4
20260902150318 87 203 4.0 14.0 0.00 0.00 0.00 66 1015.3
20260902145818 87 200 6.0 13.0 0.00 0.00 0.00 66 1015.3
20260902144817 85 199 5.0 16.0 0.00 0.00 0.00 67 1015.3
20260902144318 85 250 7.0 16.0 0.00 0.00 0.00 67 1015.4
20260902143817 85 219 5.0 14.0 0.00 0.00 0.00 67 1015.4
20260902143317 84 203 4.0 14.0 0.00 0.00 0.00 68 1015.3
20260902142317 84 202 6.0 12.0 0.00 0.00 0.00 69 1015.4
20260902141816 83 240 4.0 13.0 0.00 0.00 0.00 70 1015.4
20260902141316 83 203 6.0 13.0 0.00 0.00 0.00 69 1015.5
20260902140816 82 189 6.0 11.0 0.00 0.00 0.00 70 1015.5
20260902140316 82 185 4.0 10.0 0.00 0.00 0.00 71 1015.4
20260902135816 82 230 5.0 9.0 0.00 0.00 0.00 73 1015.5
20260902135316 81 175 2.0 7.0 0.00 0.00 0.00 74 1015.5
20260902134816 80 213 4.0 7.0 0.00 0.00 0.00 74 1015.5
20260902134316 80 175 4.0 7.0 0.00 0.00 0.00 76 1015.5
20260902133816 79 185 3.0 9.0 0.00 0.00 0.00 77 1015.4
20260902132815 78 159 2.0 6.0 0.00 0.00 0.00 78 1015.3
20260902132316 77 183 3.0 6.0 0.00 0.00 0.00 80 1015.4
20260902131815 77 161 2.0 6.0 0.00 0.00 0.00 82 1015.3
20260902131315 76 157 3.0 6.0 0.00 0.00 0.00 81 1015.2
20260902130815 75 164 3.0 6.0 0.00 0.00 0.00 83 1015.2
20260902125814 74 185 3.0 5.0 0.00 0.00 0.00 86 1015.1
20260902125314 72 173 3.0 5.0 0.00 0.00 0.00 89 1015.1
20260902124815 70 162 2.0 5.0 0.00 0.00 0.00 92 1015.1
20260902124314 69 165 2.0 4.0 0.00 0.00 0.00 94 1015.1
20260902123814 68 165 1.0 3.0 0.00 0.00 0.00 95 1015.0
20260902122313 66 123 1.0 2.0 0.00 0.00 0.00 95 1015.0
20260902121814 66 123 0.0 3.0 0.00 0.00 0.00 95 1014.9
20260902121314 66 123 1.0 3.0 0.00 0.00 0.00 95 1014.9
20260902120814 66 123 1.0 2.0 0.00 0.00 0.00 95 1014.9
20260902120313 65 123 0.0 1.0 0.00 0.00 0.00 95 1014.9
20260902115813 65 123 0.0 1.0 0.00 0.00 0.00 95 1014.8
20260902115313 65 123 0.0 1.0 0.00 0.00 0.00 95 1014.8
20260902114814 65 123 0.0 1.0 0.00 0.00 0.00 95 1014.7
20260902114313 65 123 0.0 0.0 0.00 0.00 0.00 95 1014.7
20260902113813 65 123 0.0 0.0 0.00 0.00 0.00 95 1014.7
20260902113313 65 123 0.0 0.0 0.00 0.00 0.00 94 1014.7
20260902112813 65 123 0.0 0.0 0.00 0.00 0.00 95 1014.6
20260902112313 65 123 0.0 0.0 0.00 0.00 0.00 95 1014.6
20260902111813 65 123 0.0 0.0 0.00 0.00 0.00 95 1014.6
20260902111313 65 123 0.0 0.0 0.00 0.00 0.00 95 1014.6
20260902110813 65 123 0.0 0.0 0.00 0.00 0.00 95 1014.5
20260902110312 65 123 0.0 1.0 0.00 0.00 0.00 95 1014.5
20260902105811 65 123 0.0 1.0 0.00 0.00 0.00 95 1014.3
20260902105312 65 123 0.0 0.0 0.00 0.00 0.00 95 1014.3
20260902104812 65 123 0.0 0.0 0.00 0.00 0.00 95 1014.3
20260902103812 65 123 0.0 0.0 0.00 0.00 0.00 95 1014.5
20260902103311 65 123 0.0 0.0 0.00 0.00 0.00 95 1014.3
20260902102811 65 123 0.0 0.0 0.00 0.00 0.00 95 1014.2
20260902102312 65 123 0.0 0.0 0.00 0.00 0.00 95 1014.1
20260902101811 65 123 0.0 0.0 0.00 0.00 0.00 95 1014.1
20260902101311 65 123 0.0 0.0 0.00 0.00 0.00 95 1014.2
20260902100310 65 123 0.0 0.0 0.00 0.00 0.00 95 1014.2
20260902095311 65 123 0.0 0.0 0.00 0.00 0.00 94 1014.1
20260902094810 65 123 0.0 0.0 0.00 0.00 0.00 94 1014.1
20260902094310 65 123 0.0 0.0 0.00 0.00 0.00 94 1014.1
20260902093810 65 123 0.0 0.0 0.00 0.00 0.00 94 1014.1
20260902092811 66 123 0.0 0.0 0.00 0.00 0.00 93 1014.1
20260902092309 66 123 0.0 0.0 0.00 0.00 0.00 93 1014.0
20260902091310 66 123 0.0 1.0 0.00 0.00 0.00 93 1013.9
20260902090809 66 123 0.0 1.0 0.00 0.00 0.00 93 1013.9
20260902090309 67 123 0.0 1.0 0.00 0.00 0.00 93 1013.9
20260902085809 67 123 0.0 0.0 0.00 0.00 0.00 93 1013.8
20260902085309 67 123 0.0 0.0 0.00 0.00 0.00 93 1013.9
20260902084809 67 123 0.0 0.0 0.00 0.00 0.00 93 1013.9
20260902083308 67 123 1.0 5.0 0.00 0.00 0.00 93 1013.8
20260902082808 67 123 3.0 5.0 0.00 0.00 0.00 93 1013.7
20260902081808 67 172 0.0 1.0 0.00 0.00 0.00 93 1013.5
20260902081308 67 172 0.0 0.0 0.00 0.00 0.00 93 1013.5
20260902080808 67 172 0.0 0.0 0.00 0.00 0.00 93 1013.5
20260902080308 67 172 0.0 0.0 0.00 0.00 0.00 93 1013.4
20260902075808 67 172 0.0 0.0 0.00 0.00 0.00 93 1013.4
20260902075308 67 172 0.0 0.0 0.00 0.00 0.00 93 1013.5
20260902074807 67 172 0.0 0.0 0.00 0.00 0.00 93 1013.4
20260902074307 67 172 0.0 0.0 0.00 0.00 0.00 93 1013.4
20260902073807 67 172 0.0 0.0 0.00 0.00 0.00 93 1013.4
20260902072309 67 172 0.0 0.0 0.00 0.00 0.00 93 1013.5
20260902071306 67 172 0.0 0.0 0.00 0.00 0.00 93 1013.5
20260902070306 67 172 0.0 0.0 0.00 0.00 0.00 93 1013.5
20260902065807 67 172 0.0 0.0 0.00 0.00 0.00 93 1013.5
20260902065307 67 172 0.0 0.0 0.00 0.00 0.00 92 1013.6
20260902064806 68 172 0.0 0.0 0.00 0.00 0.00 92 1013.5
20260902064306 68 172 0.0 0.0 0.00 0.00 0.00 92 1013.7
20260902063806 68 172 0.0 0.0 0.00 0.00 0.00 91 1013.7
20260902063305 68 172 0.0 0.0 0.00 0.00 0.00 91 1013.7
20260902062806 68 172 0.0 0.0 0.00 0.00 0.00 91 1013.7
20260902061805 69 172 0.0 1.0 0.00 0.00 0.00 90 1013.7
20260902060805 69 172 0.0 0.0 0.00 0.00 0.00 90 1013.7
20260902055805 69 172 0.0 1.0 0.00 0.00 0.00 89 1013.6
20260902055306 69 172 0.0 0.0 0.00 0.00 0.00 89 1013.5
20260902054803 69 172 0.0 0.0 0.00 0.00 0.00 89 1013.5
20260902053804 69 172 0.0 1.0 0.00 0.00 0.00 89 1013.5
20260902053305 69 172 0.0 1.0 0.00 0.00 0.00 89 1013.4
20260902052306 70 172 0.0 3.0 0.00 0.00 0.00 89 1013.4
20260902051804 69 172 1.0 3.0 0.00 0.00 0.00 89 1013.5
20260902051304 69 172 2.0 4.0 0.00 0.00 0.00 89 1013.5
20260902050803 69 172 2.0 4.0 0.00 0.00 0.00 89 1013.6
20260902050303 69 172 2.0 3.0 0.00 0.00 0.00 89 1013.5
20260902045803 69 172 1.0 2.0 0.00 0.00 0.00 90 1013.6
20260902045306 70 172 1.0 2.0 0.00 0.00 0.00 89 1013.8
20260902044803 70 172 0.0 1.0 0.00 0.00 0.00 89 1013.7
20260902043802 70 172 0.0 1.0 0.00 0.00 0.00 89 1013.6
20260902043302 70 172 0.0 1.0 0.00 0.00 0.00 89 1013.7
20260902042802 70 172 1.0 1.0 0.00 0.00 0.00 88 1013.7
20260902041802 71 172 0.0 1.0 0.00 0.00 0.00 88 1013.7
20260902041302 71 172 0.0 0.0 0.00 0.00 0.00 88 1013.7
20260902040802 71 172 0.0 1.0 0.00 0.00 0.00 87 1013.6
20260902040302 71 172 0.0 2.0 0.00 0.00 0.00 88 1013.6
20260902035802 71 172 0.0 2.0 0.00 0.00 0.00 88 1013.6
20260902034802 71 172 1.0 2.0 0.00 0.00 0.00 88 1013.6
20260902034302 71 172 1.0 2.0 0.00 0.00 0.00 88 1013.8
20260902033801 71 172 1.0 2.0 0.00 0.00 0.00 88 1013.7
20260902033301 71 172 0.0 1.0 0.00 0.00 0.00 88 1013.7
20260902032801 71 172 0.0 0.0 0.00 0.00 0.00 88 1013.6
20260902032301 71 172 0.0 0.0 0.00 0.00 0.00 87 1013.7
20260902031801 71 172 0.0 0.0 0.00 0.00 0.00 87 1013.6
20260902031301 71 172 0.0 0.0 0.00 0.00 0.00 87 1013.5
20260902030259 71 172 0.0 2.0 0.00 0.00 0.00 87 1013.4
20260902025801 72 172 0.0 2.0 0.00 0.00 0.00 87 1013.4
20260902025301 72 172 1.0 2.0 0.00 0.00 0.00 86 1013.3
20260902023300 73 172 0.0 0.0 0.00 0.00 0.00 85 1013.1
20260902022800 73 172 0.0 0.0 0.00 0.00 0.00 84 1013.1
20260902022259 73 172 0.0 0.0 0.00 0.00 0.00 83 1013.1
20260902021759 74 172 0.0 1.0 0.00 0.00 0.00 83 1013.1
20260902021259 74 172 0.0 1.0 0.00 0.00 0.00 83 1013.0
20260902020259 74 172 0.0 0.0 0.00 0.00 0.00 82 1012.9
20260902015759 74 172 0.0 0.0 0.00 0.00 0.00 82 1012.9
20260902015300 74 172 0.0 0.0 0.00 0.00 0.00 82 1012.9
20260902014258 75 172 0.0 1.0 0.00 0.00 0.00 81 1012.8
20260902013757 75 172 0.0 1.0 0.00 0.00 0.00 79 1012.7
20260902013258 76 172 0.0 0.0 0.00 0.00 0.00 79 1012.6
20260902012755 76 172 0.0 1.0 0.00 0.00 0.00 78 1012.6
20260902012256 76 172 0.0 1.0 0.00 0.00 0.00 77 1012.6
20260902011253 77 172 0.0 1.0 0.00 0.00 0.00 76 1012.6
20260902010254 78 172 1.0 2.0 0.00 0.00 0.00 75 1012.6
20260902005752 79 172 0.0 1.0 0.00 0.00 0.00 74 1012.5
20260902005252 79 172 0.0 0.0 0.00 0.00 0.00 73 1012.6
20260902004734 80 172 0.0 0.0 0.00 0.00 0.00 70 1012.6
20260902004232 80 172 0.0 0.0 0.00 0.00 0.00 70 1012.6
20260902003732 81 172 0.0 1.0 0.00 0.00 0.00 69 1012.6
20260902002730 83 172 0.0 2.0 0.00 0.00 0.00 66 1012.6
20260902002230 83 172 1.0 3.0 0.00 0.00 0.00 66 1012.7
20260902001731 84 172 1.0 3.0 0.00 0.00 0.00 64 1012.7
20260902001231 85 169 2.0 3.0 0.00 0.00 0.00 62 1012.7
20260902000728 86 175 1.0 4.0 0.00 0.00 0.00 60 1012.7
20260902000228 88 175 2.0 5.0 0.00 0.00 0.00 54 1012.9
20260901235725 89 175 2.0 6.0 0.00 0.00 0.00 50 1012.8
20260901235226 91 171 4.0 6.0 0.00 0.00 0.00 48 1012.7
20260901233724 93 200 3.0 7.0 0.00 0.00 0.00 46 1012.8
20260901233224 93 162 3.0 9.0 0.00 0.00 0.00 47 1012.8
20260901232222 93 172 3.0 9.0 0.00 0.00 0.00 43 1012.7
20260901231722 94 213 2.0 11.0 0.00 0.00 0.00 43 1012.9
20260901231220 95 188 6.0 11.0 0.00 0.00 0.00 40 1012.7
20260901230720 96 182 4.0 11.0 0.00 0.00 0.00 41 1012.8
20260901230220 96 195 3.0 13.0 0.00 0.00 0.00 40 1012.8
20260901225717 96 189 7.0 13.0 0.00 0.00 0.00 39 1012.8
20260901225218 96 157 3.0 12.0 0.00 0.00 0.00 38 1012.8
20260901224719 97 227 6.0 12.0 0.00 0.00 0.00 39 1012.8
20260901224215 97 254 5.0 10.0 0.00 0.00 0.00 39 1012.8
20260901223716 97 212 7.0 10.0 0.00 0.00 0.00 38 1012.8
20260901223216 97 212 4.0 13.0 0.00 0.00 0.00 38 1012.8
20260901222714 98 186 4.0 14.0 0.00 0.00 0.00 37 1012.8
20260901222214 98 219 6.0 14.0 0.00 0.00 0.00 36 1012.8
20260901221714 98 259 6.0 19.0 0.00 0.00 0.00 37 1012.8
20260901220712 98 202 10.0 17.0 0.00 0.00 0.00 36 1012.9
20260901220212 98 192 4.0 16.0 0.00 0.00 0.00 38 1012.9
20260901215710 98 185 6.0 14.0 0.00 0.00 0.00 37 1012.9
20260901215210 98 237 7.0 14.0 0.00 0.00 0.00 37 1012.9
20260901214209 98 204 9.0 16.0 0.00 0.00 0.00 36 1013.0
20260901213209 99 180 9.0 18.0 0.00 0.00 0.00 35 1013.0
20260901211706 99 202 6.0 17.0 0.00 0.00 0.00 36 1013.1
20260901211203 99 283 7.0 17.0 0.00 0.00 0.00 35 1013.2
20260901210703 100 214 4.0 16.0 0.00 0.00 0.00 35 1013.3
20260901210202 99 186 9.0 16.0 0.00 0.00 0.00 34 1013.3
20260901205202 99 224 5.0 16.0 0.00 0.00 0.00 36 1013.4
20260901204202 99 259 5.0 17.0 0.00 0.00 0.00 36 1013.6
20260901203703 99 203 6.0 17.0 0.00 0.00 0.00 37 1013.7
20260901203203 99 195 6.0 14.0 0.00 0.00 0.00 38 1013.8